"SCET";"TARGET";"ELECTRON_DENSITY";"ERROR_FLAG";"ELECTRON_DENSITY_ERROR";"FREQ_FCE";"MEASURED_VALUE";"MEASURED_ITEM";"FREQ_PLASMA";"FREQ_UPPER_HYBRID";"FREQ_R_EQUALS_ZERO";"FREQ_L_EQUALS_ZERO";"ORBIT_NUMBER";"SATURN_RADIUS";"SATURN_IAU_LONGITUDE";"SATURN_SLS4_S_LONGITUDE";"SATURN_SLS4_N_LONGITUDE";"SATURN_SLS5_S_LONGITUDE";"SATURN_SLS5_N_LONGITUDE";"SATURN_LOCAL_TIME";"SATURN_KRONOGRAPHIC_LATITUDE";"SATURN_MAGNETIC_LATITUDE";"SATURN_L";"SATURN_L_OFFSET";"SATURN_SOLAR_EQUATORIAL_X";"SATURN_SOLAR_EQUATORIAL_Y";"SATURN_SOLAR_EQUATORIAL_Z";"SATURN_ALTITUDE";"ENCELADUS_ENCOUNTER_NUMBER";"ENCELADUS_RADIUS";"ENCELADUS_COROTATIONAL_X";"ENCELADUS_COROTATIONAL_Y";"ENCELADUS_COROTATIONAL_Z";"ENCELADUS_TRUE_ANOMALY";"ENCELADUS_PERIAPSIS_TIME";"JUPITER_RADIUS";"JUPITER_SYSTEMIII_LONGITUDE";"JUPITER_MAGNETIC_LATITUDE";"JUPITER_MAGNETIC_LOCAL_TIME";"JUPITER_L";"IO_PHASE";"EARTH_RADIUS";"EARTH_MAGNETIC_LATITUDE";"EARTH_LOCAL_TIME";"EARTH_L"
"[UTC]";"[0=Saturn, 1=Enceladus, 2=Jupiter, 3=Earth]";"[cm-3]";"[0=automated, 1=manual]";"[normalized density error]";"[Hz]";"[Hz]";"[0=upper hybrid frequency, 1=plasma frequency cutoff]";"[Hz]";"[Hz]";"[Hz]";"[Hz}";"[0, A, B, C, 3, 4, ... , 292, 293]";"[Rs where 1Rs=60268km]";"[degrees]";"[degrees]";"[degrees]";"[degrees]";"[degrees]";"[hours]";"[degrees]";"[degrees where offset=2293km north]";"[Rs where 1Rs=60268km]";"[Rs where 1Rs=60268km and offset=2293km north]";"[Rs where 1Rs=60268km]";"[Rs where 1Rs=60268km]";"[Rs where 1Rs=60268km]";"[km where ellipsoid a,b=60268km and c=54364km]";"[E0, E1, E2, ... , E21, E22]";"[Renc where 1Renc=252.1km]";"[Renc where 1Renc=252.1km]";"[Renc where 1Renc=252.1km]";"[Renc where 1Renc=252.1km]";"[degrees]";"[UTC]";"[Rj where 1Rj=71492km]";"[degrees]";"[degrees using JRM09 model]";"[hours using JRM09 model]";"[Rj where 1Rj=71492km]";"[degrees]";"[Re where 1Re=6378.1366km]";"[degrees]";"[hours]";"[Re where 1Re=6378.1366km]"
2009-12-25T20:19:32.413Z;0;7.4290e+00;0;     0.190;  1215.844;  24506.082; 0;  24475.902;  24506.082;  25091.373;  23875.529;123;   7.270; 115.515;;; 183.895;  76.202;  23.408;  -4.940;  -5.239;   7.324;   7.266;  -7.156;   1.118;  -0.626;;;;;;;;;;;;;;;;;;
2009-12-25T20:19:56.413Z;0;8.9920e+00;0;     0.193;  1215.844;  26954.871; 0;  26927.436;  26954.871;  27542.219;  26326.375;123;   7.267; 115.716;;; 184.101;  76.402;  23.410;  -4.940;  -5.239;   7.321;   7.262;  -7.153;   1.114;  -0.626;;;;;;;;;;;;;;;;;;
2009-12-25T20:20:04.413Z;0;8.9990e+00;0;     0.187;  1228.136;  26967.109; 0;  26939.129;  26967.109;  27560.195;  26332.059;123;   7.265; 115.783;;; 184.169;  76.469;  23.410;  -4.940;  -5.239;   7.320;   7.261;  -7.152;   1.113;  -0.626;;;;;;;;;;;;;;;;;;
2009-12-25T20:20:12.413Z;0;7.9780e+00;0;     0.204;  1228.136;  25394.359; 0;  25364.645;  25394.359;  25986.145;  24758.008;123;   7.264; 115.850;;; 184.237;  76.536;  23.411;  -4.940;  -5.239;   7.318;   7.260;  -7.151;   1.112;  -0.626;;;;;;;;;;;;;;;;;;
2009-12-25T20:20:20.413Z;0;7.9280e+00;0;     0.178;  1228.136;  25314.537; 0;  25284.729;  25314.537;  25906.252;  24678.115;123;   7.263; 115.917;;; 184.304;  76.602;  23.411;  -4.940;  -5.239;   7.317;   7.259;  -7.150;   1.111;  -0.625;;;;;;;;;;;;;;;;;;
2009-12-25T20:20:44.413Z;0;7.9220e+00;0;     0.199;  1228.136;  25305.699; 0;  25275.879;  25305.699;  25897.406;  24669.270;123;   7.259; 116.118;;; 184.506;  76.802;  23.413;  -4.940;  -5.239;   7.313;   7.255;  -7.147;   1.107;  -0.625;;;;;;;;;;;;;;;;;;
2009-12-25T20:20:52.413Z;0;8.6510e+00;0;     0.172;  1228.136;  26440.475; 0;  26411.936;  26440.475;  27033.143;  25805.006;123;   7.258; 116.185;;; 184.573;  76.869;  23.413;  -4.940;  -5.239;   7.312;   7.254;  -7.146;   1.106;  -0.625;;;;;;;;;;;;;;;;;;
2009-12-25T20:21:00.413Z;0;9.2700e+00;0;     0.097;  1234.240;  27369.654; 0;  27341.811;  27369.654;  27965.895;  26731.654;123;   7.257; 116.252;;; 184.640;  76.935;  23.414;  -4.940;  -5.239;   7.311;   7.253;  -7.145;   1.105;  -0.625;;;;;;;;;;;;;;;;;;
2009-12-25T20:22:36.412Z;0;8.6350e+00;0;     0.192;  1239.812;  26417.666; 0;  26388.557;  26417.666;  27015.744;  25775.932;123;   7.242; 117.057;;; 185.445;  77.735;  23.420;  -4.940;  -5.240;   7.296;   7.238;  -7.132;   1.091;  -0.624;;;;;;;;;;;;;;;;;;
2009-12-25T20:22:44.412Z;0;8.2930e+00;0;     0.176;  1239.812;  25889.492; 0;  25859.789;  25889.492;  26487.123;  25247.312;123;   7.241; 117.124;;; 185.512;  77.802;  23.421;  -4.940;  -5.240;   7.295;   7.237;  -7.131;   1.089;  -0.624;;;;;;;;;;;;;;;;;;
2009-12-25T20:23:08.412Z;0;9.6460e+00;0;     0.109;  1240.092;  27918.023; 0;  27890.469;  27918.023;  28517.406;  27277.312;123;   7.237; 117.325;;; 185.712;  78.002;  23.423;  -4.940;  -5.240;   7.291;   7.233;  -7.128;   1.086;  -0.623;;;;;;;;;;;;;;;;;;
2009-12-25T20:23:16.412Z;0;8.9970e+00;0;     0.189;  1240.092;  26964.164; 0;  26935.633;  26964.164;  27562.814;  26322.723;123;   7.236; 117.392;;; 185.779;  78.068;  23.423;  -4.940;  -5.240;   7.290;   7.232;  -7.127;   1.085;  -0.623;;;;;;;;;;;;;;;;;;
2009-12-25T20:23:32.411Z;0;8.7080e+00;0;     0.215;  1240.092;  26528.955; 0;  26499.955;  26528.955;  27127.254;  25887.162;123;   7.234; 117.526;;; 185.913;  78.201;  23.424;  -4.940;  -5.240;   7.288;   7.230;  -7.125;   1.082;  -0.623;;;;;;;;;;;;;;;;;;
2009-12-25T20:23:48.411Z;0;9.3950e+00;0;     0.194;  1240.092;  27552.793; 0;  27524.871;  27552.793;  28151.900;  26911.809;123;   7.231; 117.660;;; 186.046;  78.335;  23.425;  -4.940;  -5.240;   7.285;   7.227;  -7.123;   1.080;  -0.623;;;;;;;;;;;;;;;;;;
2009-12-25T20:24:04.411Z;0;9.6380e+00;0;     0.111;  1248.772;  27907.098; 0;  27879.145;  27907.098;  28510.521;  27261.750;123;   7.229; 117.794;;; 186.180;  78.468;  23.426;  -4.940;  -5.240;   7.283;   7.225;  -7.121;   1.078;  -0.622;;;;;;;;;;;;;;;;;;
2009-12-25T20:24:12.411Z;0;9.6960e+00;0;     0.139;  1248.772;  27990.242; 0;  27962.371;  27990.242;  28593.729;  27344.955;123;   7.227; 117.861;;; 186.246;  78.534;  23.427;  -4.940;  -5.240;   7.281;   7.223;  -7.120;   1.076;  -0.622;;;;;;;;;;;;;;;;;;
2009-12-25T20:24:44.411Z;0;8.8450e+00;0;     0.191;  1248.772;  26736.123; 0;  26706.943;  26736.123;  27338.627;  26089.855;123;   7.223; 118.129;;; 186.513;  78.801;  23.429;  -4.940;  -5.240;   7.277;   7.219;  -7.116;   1.072;  -0.622;;;;;;;;;;;;;;;;;;
2009-12-25T20:24:52.411Z;0;8.5210e+00;0;     0.222;  1248.772;  26242.672; 0;  26212.943;  26242.672;  26844.764;  25595.992;123;   7.221; 118.196;;; 186.580;  78.867;  23.429;  -4.940;  -5.240;   7.275;   7.217;  -7.115;   1.070;  -0.622;;;;;;;;;;;;;;;;;;
2009-12-25T20:25:08.411Z;0;9.0750e+00;0;     0.212;  1250.564;  27081.211; 0;  27052.320;  27081.211;  27684.828;  26434.264;123;   7.219; 118.330;;; 186.713;  79.000;  23.431;  -4.940;  -5.240;   7.273;   7.215;  -7.112;   1.068;  -0.622;;;;;;;;;;;;;;;;;;
2009-12-25T20:25:24.411Z;0;8.9100e+00;0;     0.200;  1250.564;  26834.703; 0;  26805.547;  26834.703;  27438.121;  26187.557;123;   7.216; 118.464;;; 186.846;  79.133;  23.432;  -4.940;  -5.240;   7.270;   7.212;  -7.110;   1.066;  -0.621;;;;;;;;;;;;;;;;;;
2009-12-25T20:25:32.411Z;0;9.9760e+00;0;     0.189;  1250.564;  28390.061; 0;  28362.504;  28390.061;  28994.678;  27744.113;123;   7.215; 118.531;;; 186.912;  79.200;  23.432;  -4.940;  -5.241;   7.269;   7.211;  -7.109;   1.064;  -0.621;;;;;;;;;;;;;;;;;;
2009-12-25T20:25:40.411Z;0;8.1970e+00;0;     0.152;  1250.564;  25741.008; 0;  25710.611;  25741.008;  26343.496;  25092.932;123;   7.214; 118.598;;; 186.979;  79.267;  23.433;  -4.940;  -5.241;   7.268;   7.210;  -7.108;   1.063;  -0.621;;;;;;;;;;;;;;;;;;
2009-12-25T20:26:12.410Z;0;7.6210e+00;0;     0.225;  1241.016;  24820.592; 0;  24789.547;  24820.592;  25417.820;  24176.805;123;   7.209; 118.866;;; 187.245;  79.533;  23.435;  -4.940;  -5.241;   7.263;   7.205;  -7.104;   1.059;  -0.621;;;;;;;;;;;;;;;;;;
2009-12-25T20:26:28.410Z;0;7.3900e+00;0;     0.209;  1241.016;  24442.889; 0;  24411.363;  24442.889;  25039.758;  23798.740;123;   7.207; 119.000;;; 187.377;  79.666;  23.436;  -4.940;  -5.241;   7.261;   7.203;  -7.102;   1.056;  -0.621;;;;;;;;;;;;;;;;;;
2009-12-25T20:27:16.410Z;0;7.9550e+00;0;     0.200;  1246.644;  25359.092; 0;  25328.432;  25359.092;  25959.422;  24712.777;123;   7.199; 119.401;;; 187.775;  80.065;  23.439;  -4.940;  -5.241;   7.253;   7.195;  -7.096;   1.049;  -0.620;;;;;;;;;;;;;;;;;;
2009-12-25T20:27:24.410Z;0;8.4000e+00;0;     0.190;  1246.644;  26057.076; 0;  26027.238;  26057.076;  26658.021;  25411.379;123;   7.198; 119.468;;; 187.841;  80.132;  23.440;  -4.940;  -5.241;   7.252;   7.194;  -7.094;   1.048;  -0.620;;;;;;;;;;;;;;;;;;
2009-12-25T20:27:56.410Z;0;7.5950e+00;0;     0.207;  1246.644;  24779.195; 0;  24747.816;  24779.195;  25378.986;  24132.342;123;   7.193; 119.736;;; 188.106;  80.398;  23.442;  -4.939;  -5.241;   7.247;   7.189;  -7.090;   1.043;  -0.619;;;;;;;;;;;;;;;;;;
2009-12-25T20:28:52.409Z;0;7.3550e+00;0;     0.207;  1255.296;  24386.207; 0;  24353.877;  24386.207;  24989.611;  23734.316;123;   7.185; 120.204;;; 188.568;  80.863;  23.446;  -4.939;  -5.241;   7.238;   7.181;  -7.083;   1.035;  -0.619;;;;;;;;;;;;;;;;;;
2009-12-25T20:29:08.409Z;0;8.3170e+00;0;     0.217;  1265.600;  25928.006; 0;  25897.100;  25928.006;  26537.629;  25272.029;123;   7.182; 120.338;;; 188.700;  80.996;  23.447;  -4.939;  -5.242;   7.236;   7.178;  -7.081;   1.032;  -0.618;;;;;;;;;;;;;;;;;;
2009-12-25T20:29:24.409Z;0;8.1560e+00;0;     0.169;  1265.600;  25677.387; 0;  25646.178;  25677.387;  26286.783;  25021.184;123;   7.180; 120.472;;; 188.832;  81.129;  23.448;  -4.939;  -5.242;   7.233;   7.176;  -7.079;   1.030;  -0.618;;;;;;;;;;;;;;;;;;
2009-12-25T20:29:40.409Z;0;7.7730e+00;0;     0.207;  1265.600;  25068.871; 0;  25036.904;  25068.871;  25677.699;  24412.100;123;   7.177; 120.606;;; 188.964;  81.262;  23.449;  -4.939;  -5.242;   7.231;   7.173;  -7.076;   1.028;  -0.618;;;;;;;;;;;;;;;;;;
2009-12-25T20:29:48.409Z;0;8.6590e+00;0;     0.176;  1265.600;  26454.773; 0;  26424.482;  26454.773;  27064.859;  25799.258;123;   7.176; 120.672;;; 189.030;  81.329;  23.450;  -4.939;  -5.242;   7.230;   7.172;  -7.075;   1.026;  -0.618;;;;;;;;;;;;;;;;;;
2009-12-25T20:30:36.408Z;0;8.0340e+00;0;     0.199;  1275.988;  25485.551; 0;  25453.588;  25485.551;  26099.576;  24823.588;123;   7.169; 121.074;;; 189.427;  81.727;  23.453;  -4.939;  -5.242;   7.222;   7.165;  -7.069;   1.019;  -0.617;;;;;;;;;;;;;;;;;;
2009-12-25T20:31:24.408Z;0;8.2440e+00;0;     0.197;  1273.720;  25814.719; 0;  25783.277;  25814.719;  26428.000;  25154.281;123;   7.161; 121.475;;; 189.826;  82.126;  23.456;  -4.939;  -5.242;   7.215;   7.157;  -7.063;   1.012;  -0.617;;;;;;;;;;;;;;;;;;
2009-12-25T20:31:32.408Z;0;8.2010e+00;0;     0.218;  1273.720;  25747.418; 0;  25715.893;  25747.418;  26360.639;  25086.918;123;   7.160; 121.542;;; 189.892;  82.192;  23.457;  -4.939;  -5.242;   7.214;   7.156;  -7.062;   1.011;  -0.616;;;;;;;;;;;;;;;;;;
2009-12-25T20:32:36.408Z;0;8.9270e+00;0;     0.173;  1287.160;  26861.471; 0;  26830.613;  26861.471;  27481.912;  26194.752;123;   7.150; 122.076;;; 190.424;  82.724;  23.461;  -4.939;  -5.242;   7.204;   7.146;  -7.053;   1.002;  -0.616;;;;;;;;;;;;;;;;;;
2009-12-25T20:33:08.407Z;0;8.7910e+00;0;     0.200;  1297.772;  26656.803; 0;  26625.193;  26656.803;  27281.984;  25984.213;123;   7.146; 122.343;;; 190.689;  82.989;  23.463;  -4.939;  -5.243;   7.199;   7.142;  -7.049;   0.997;  -0.615;;;;;;;;;;;;;;;;;;
2009-12-25T20:33:24.407Z;0;9.1190e+00;0;     0.179;  1297.772;  27149.025; 0;  27117.990;  27149.025;  27774.639;  26476.865;123;   7.143; 122.477;;; 190.822;  83.122;  23.464;  -4.939;  -5.243;   7.196;   7.139;  -7.047;   0.994;  -0.615;;;;;;;;;;;;;;;;;;
2009-12-25T20:33:48.407Z;0;1.0270e+01;0;     0.140;  1297.772;  28801.621; 0;  28772.367;  28801.621;  29428.570;  28130.799;123;   7.139; 122.677;;; 191.021;  83.321;  23.466;  -4.939;  -5.243;   7.193;   7.135;  -7.044;   0.991;  -0.615;;;;;;;;;;;;;;;;;;
2009-12-25T20:34:20.407Z;0;8.6920e+00;0;     0.189;  1301.188;  26507.080; 0;  26475.125;  26507.080;  27133.711;  25832.523;123;   7.134; 122.945;;; 191.287;  83.587;  23.468;  -4.939;  -5.243;   7.188;   7.131;  -7.039;   0.986;  -0.614;;;;;;;;;;;;;;;;;;
2009-12-25T20:37:40.405Z;0;9.0560e+00;0;     0.180;  1310.596;  27056.188; 0;  27024.426;  27056.188;  27687.668;  26377.072;123;   7.104; 124.613;;; 192.945;  85.245;  23.482;  -4.938;  -5.244;   7.157;   7.100;  -7.013;   0.956;  -0.611;;;;;;;;;;;;;;;;;;
2009-12-25T20:38:12.405Z;0;9.0110e+00;0;     0.212;  1313.900;  26988.539; 0;  26956.537;  26988.539;  27621.492;  26307.592;123;   7.099; 124.880;;; 193.211;  85.511;  23.484;  -4.938;  -5.244;   7.152;   7.095;  -7.008;   0.952;  -0.611;;;;;;;;;;;;;;;;;;
2009-12-25T20:39:00.405Z;0;8.9750e+00;0;     0.197;  1310.512;  26934.891; 0;  26902.990;  26934.891;  27566.225;  26255.713;123;   7.092; 125.280;;; 193.608;  85.908;  23.488;  -4.938;  -5.244;   7.144;   7.088;  -7.002;   0.945;  -0.610;;;;;;;;;;;;;;;;;;
2009-12-25T20:39:16.405Z;0;8.9210e+00;0;     0.179;  1310.512;  26853.326; 0;  26821.328;  26853.326;  27484.588;  26174.076;123;   7.089; 125.414;;; 193.741;  86.041;  23.489;  -4.938;  -5.244;   7.142;   7.085;  -7.000;   0.942;  -0.610;;;;;;;;;;;;;;;;;;
2009-12-25T20:40:04.404Z;0;8.2650e+00;0;     0.202;  1312.528;  25849.260; 0;  25815.916;  25849.260;  26480.520;  25167.992;123;   7.082; 125.814;;; 194.138;  86.438;  23.492;  -4.938;  -5.244;   7.135;   7.078;  -6.993;   0.935;  -0.610;;;;;;;;;;;;;;;;;;
2009-12-25T20:41:00.404Z;0;8.7970e+00;0;     0.191;  1321.572;  26667.344; 0;  26634.576;  26667.344;  27303.559;  25981.986;123;   7.073; 126.280;;; 194.602;  86.902;  23.496;  -4.938;  -5.244;   7.126;   7.069;  -6.986;   0.927;  -0.609;;;;;;;;;;;;;;;;;;
2009-12-25T20:41:24.404Z;0;7.4810e+00;0;     0.192;  1321.572;  24597.816; 0;  24562.289;  24597.816;  25231.961;  23910.389;123;   7.069; 126.480;;; 194.801;  87.101;  23.498;  -4.937;  -5.244;   7.122;   7.066;  -6.982;   0.923;  -0.608;;;;;;;;;;;;;;;;;;
2009-12-25T20:42:12.403Z;0;8.0400e+00;0;     0.196;  1342.012;  25497.252; 0;  25461.910;  25497.252;  26141.756;  24799.744;123;   7.062; 126.880;;; 195.198;  87.498;  23.501;  -4.937;  -5.245;   7.115;   7.058;  -6.976;   0.916;  -0.608;;;;;;;;;;;;;;;;;;
2009-12-25T20:43:08.403Z;0;9.9990e+00;0;     0.191;  1352.708;  28427.918; 0;  28395.717;  28427.918;  29080.125;  27727.416;123;   7.053; 127.346;;; 195.661;  87.961;  23.505;  -4.937;  -5.245;   7.106;   7.050;  -6.968;   0.908;  -0.607;;;;;;;;;;;;;;;;;;
2009-12-25T20:43:16.403Z;0;9.4470e+00;0;     0.188;  1352.708;  27634.473; 0;  27601.346;  27634.473;  28285.984;  26933.277;123;   7.052; 127.412;;; 195.728;  88.028;  23.506;  -4.937;  -5.245;   7.105;   7.048;  -6.967;   0.906;  -0.607;;;;;;;;;;;;;;;;;;
2009-12-25T20:43:32.403Z;0;9.7690e+00;0;     0.192;  1352.708;  28099.535; 0;  28066.957;  28099.535;  28751.459;  27398.750;123;   7.050; 127.546;;; 195.860;  88.160;  23.507;  -4.937;  -5.245;   7.102;   7.046;  -6.965;   0.904;  -0.607;;;;;;;;;;;;;;;;;;
2009-12-25T20:43:48.403Z;0;9.9890e+00;0;     0.185;  1352.708;  28414.240; 0;  28382.023;  28414.240;  29066.436;  27713.727;123;   7.047; 127.679;;; 195.992;  88.292;  23.508;  -4.937;  -5.245;   7.100;   7.043;  -6.963;   0.902;  -0.606;;;;;;;;;;;;;;;;;;
2009-12-25T20:43:56.403Z;0;9.5980e+00;0;     0.155;  1352.708;  27853.406; 0;  27820.539;  27853.406;  28505.113;  27152.406;123;   7.046; 127.745;;; 196.058;  88.358;  23.509;  -4.937;  -5.245;   7.099;   7.042;  -6.962;   0.900;  -0.606;;;;;;;;;;;;;;;;;;
2009-12-25T20:44:04.403Z;0;9.9580e+00;0;     0.171;  1356.068;  28369.484; 0;  28337.055;  28369.484;  29023.201;  27667.133;123;   7.045; 127.812;;; 196.125;  88.425;  23.509;  -4.937;  -5.245;   7.097;   7.041;  -6.961;   0.899;  -0.606;;;;;;;;;;;;;;;;;;
2009-12-25T20:44:36.402Z;0;9.8930e+00;0;     0.189;  1356.068;  28276.771; 0;  28244.236;  28276.771;  28930.408;  27574.340;123;   7.040; 128.078;;; 196.389;  88.689;  23.511;  -4.937;  -5.245;   7.092;   7.036;  -6.956;   0.895;  -0.606;;;;;;;;;;;;;;;;;;
2009-12-25T20:44:44.402Z;0;1.0730e+01;0;     0.104;  1356.068;  29439.979; 0;  29408.730;  29439.979;  30094.580;  28738.512;123;   7.039; 128.145;;; 196.455;  88.755;  23.512;  -4.937;  -5.245;   7.091;   7.035;  -6.955;   0.893;  -0.606;;;;;;;;;;;;;;;;;;
2009-12-25T20:45:00.402Z;0;1.0330e+01;0;     0.196;  1362.424;  28893.463; 0;  28861.324;  28893.463;  29550.574;  28188.150;123;   7.036; 128.278;;; 196.588;  88.888;  23.513;  -4.937;  -5.245;   7.089;   7.032;  -6.953;   0.891;  -0.606;;;;;;;;;;;;;;;;;;
2009-12-25T20:45:56.402Z;0;9.1350e+00;0;     0.178;  1362.424;  27175.656; 0;  27141.482;  27175.656;  27831.242;  26468.818;123;   7.028; 128.744;;; 197.051;  89.351;  23.517;  -4.937;  -5.245;   7.080;   7.024;  -6.946;   0.883;  -0.605;;;;;;;;;;;;;;;;;;
2009-12-25T20:46:12.402Z;0;7.8640e+00;0;     0.190;  1368.108;  25218.863; 0;  25181.727;  25218.863;  25875.070;  24506.961;123;   7.025; 128.877;;; 197.183;  89.483;  23.518;  -4.936;  -5.245;   7.077;   7.021;  -6.943;   0.880;  -0.605;;;;;;;;;;;;;;;;;;
2009-12-25T20:46:20.402Z;0;8.7680e+00;0;     0.178;  1368.108;  26625.244; 0;  26590.072;  26625.244;  27282.924;  25914.814;123;   7.024; 128.943;;; 197.249;  89.549;  23.519;  -4.936;  -5.245;   7.076;   7.020;  -6.942;   0.879;  -0.604;;;;;;;;;;;;;;;;;;
2009-12-25T20:47:16.401Z;0;9.8570e+00;0;     0.201;  1374.940;  28226.467; 0;  28192.959;  28226.467;  28888.811;  27513.869;123;   7.015; 129.409;;; 197.712;  90.012;  23.523;  -4.936;  -5.246;   7.068;   7.011;  -6.935;   0.871;  -0.604;;;;;;;;;;;;;;;;;;
2009-12-25T20:47:24.401Z;0;9.2940e+00;0;     0.202;  1374.940;  27411.461; 0;  27376.957;  27411.461;  28073.057;  26698.117;123;   7.014; 129.475;;; 197.778;  90.078;  23.523;  -4.936;  -5.246;   7.066;   7.010;  -6.934;   0.870;  -0.604;;;;;;;;;;;;;;;;;;
2009-12-25T20:47:32.401Z;0;9.8760e+00;0;     0.182;  1374.940;  28253.582; 0;  28220.107;  28253.582;  28915.949;  27541.010;123;   7.013; 129.542;;; 197.844;  90.144;  23.524;  -4.936;  -5.246;   7.065;   7.009;  -6.933;   0.868;  -0.603;;;;;;;;;;;;;;;;;;
2009-12-25T20:47:48.401Z;0;9.9930e+00;0;     0.197;  1374.940;  28420.145; 0;  28386.865;  28420.145;  29082.660;  27707.719;123;   7.010; 129.675;;; 197.976;  90.276;  23.525;  -4.936;  -5.246;   7.063;   7.006;  -6.930;   0.866;  -0.603;;;;;;;;;;;;;;;;;;
2009-12-25T20:47:56.401Z;0;1.1230e+01;0;     0.148;  1374.940;  30126.781; 0;  30095.391;  30126.781;  30790.711;  29415.771;123;   7.009; 129.741;;; 198.042;  90.342;  23.526;  -4.936;  -5.246;   7.061;   7.005;  -6.929;   0.865;  -0.603;;;;;;;;;;;;;;;;;;
2009-12-25T20:48:04.401Z;0;1.1120e+01;0;     0.157;  1385.608;  29984.006; 0;  29951.973;  29984.006;  30652.789;  29267.180;123;   7.008; 129.808;;; 198.108;  90.408;  23.526;  -4.936;  -5.246;   7.060;   7.004;  -6.928;   0.864;  -0.603;;;;;;;;;;;;;;;;;;
2009-12-25T20:48:12.401Z;0;9.9360e+00;0;     0.182;  1385.608;  28340.801; 0;  28306.908;  28340.801;  29008.189;  27622.582;123;   7.007; 129.874;;; 198.174;  90.474;  23.527;  -4.936;  -5.246;   7.059;   7.003;  -6.927;   0.862;  -0.603;;;;;;;;;;;;;;;;;;
2009-12-25T20:48:20.401Z;0;9.7770e+00;0;     0.187;  1385.608;  28113.240; 0;  28079.074;  28113.240;  28780.424;  27394.814;123;   7.005; 129.941;;; 198.240;  90.540;  23.527;  -4.936;  -5.246;   7.058;   7.002;  -6.926;   0.861;  -0.603;;;;;;;;;;;;;;;;;;
2009-12-25T20:48:36.401Z;0;9.6300e+00;0;     0.145;  1385.608;  27900.877; 0;  27866.449;  27900.877;  28567.865;  27182.256;123;   7.003; 130.074;;; 198.372;  90.672;  23.529;  -4.936;  -5.246;   7.055;   6.999;  -6.924;   0.859;  -0.603;;;;;;;;;;;;;;;;;;
2009-12-25T20:48:52.401Z;0;1.0930e+01;0;     0.181;  1385.608;  29720.328; 0;  29688.012;  29720.328;  30388.898;  29003.289;123;   7.000; 130.207;;; 198.505;  90.805;  23.530;  -4.936;  -5.246;   7.053;   6.997;  -6.922;   0.856;  -0.602;;;;;;;;;;;;;;;;;;
2009-12-25T20:49:56.400Z;0;1.1270e+01;0;     0.119;  1394.708;  30181.164; 0;  30148.922;  30181.164;  30854.340;  29459.631;123;   6.991; 130.738;;; 199.033;  91.333;  23.534;  -4.936;  -5.246;   7.043;   6.987;  -6.913;   0.847;  -0.601;;;;;;;;;;;;;;;;;;
2009-12-25T20:50:12.400Z;0;1.1090e+01;0;     0.160;  1410.220;  29937.803; 0;  29904.570;  29937.803;  30617.992;  29207.771;123;   6.988; 130.871;;; 199.166;  91.465;  23.535;  -4.936;  -5.246;   7.040;   6.984;  -6.911;   0.845;  -0.601;;;;;;;;;;;;;;;;;;
2009-12-25T20:50:20.400Z;0;1.1780e+01;0;     0.094;  1410.220;  30854.248; 0;  30822.004;  30854.248;  31535.178;  30124.957;123;   6.987; 130.937;;; 199.233;  91.531;  23.536;  -4.936;  -5.246;   7.039;   6.983;  -6.910;   0.843;  -0.601;;;;;;;;;;;;;;;;;;
2009-12-25T20:51:00.400Z;0;1.0960e+01;0;     0.192;  1409.212;  29765.648; 0;  29732.271;  29765.648;  30445.225;  29036.014;123;   6.981; 131.270;;; 199.567;  91.861;  23.539;  -4.935;  -5.246;   7.033;   6.977;  -6.904;   0.837;  -0.601;;;;;;;;;;;;;;;;;;
2009-12-25T20:51:08.400Z;0;1.1000e+01;0;     0.166;  1409.212;  29815.480; 0;  29782.158;  29815.480;  30495.100;  29085.887;123;   6.979; 131.336;;; 199.633;  91.927;  23.539;  -4.935;  -5.246;   7.031;   6.976;  -6.903;   0.836;  -0.600;;;;;;;;;;;;;;;;;;
2009-12-25T20:51:32.399Z;0;1.0720e+01;0;     0.206;  1409.212;  29431.799; 0;  29398.043;  29431.799;  30111.092;  28701.879;123;   6.976; 131.535;;; 199.834;  92.125;  23.541;  -4.935;  -5.246;   7.028;   6.972;  -6.900;   0.833;  -0.600;;;;;;;;;;;;;;;;;;
2009-12-25T20:51:48.399Z;0;1.0690e+01;0;     0.178;  1409.212;  29392.281; 0;  29358.480;  29392.281;  30071.539;  28662.328;123;   6.973; 131.668;;; 199.968;  92.257;  23.542;  -4.935;  -5.246;   7.025;   6.969;  -6.898;   0.830;  -0.600;;;;;;;;;;;;;;;;;;
2009-12-25T20:51:56.399Z;0;1.0700e+01;0;     0.163;  1409.212;  29405.129; 0;  29371.342;  29405.129;  30084.398;  28675.186;123;   6.972; 131.734;;; 200.035;  92.323;  23.543;  -4.935;  -5.246;   7.024;   6.968;  -6.897;   0.829;  -0.600;;;;;;;;;;;;;;;;;;
2009-12-25T20:52:12.399Z;0;1.2290e+01;0;     0.159;  1424.724;  31509.588; 0;  31477.361;  31509.588;  32197.783;  30773.059;123;   6.970; 131.867;;; 200.168;  92.455;  23.544;  -4.935;  -5.246;   7.021;   6.966;  -6.894;   0.827;  -0.600;;;;;;;;;;;;;;;;;;
2009-12-25T20:52:36.399Z;0;1.2380e+01;0;     0.096;  1424.724;  31622.301; 0;  31590.189;  31622.301;  32310.582;  30885.857;123;   6.966; 132.066;;; 200.369;  92.653;  23.546;  -4.935;  -5.247;   7.018;   6.962;  -6.891;   0.823;  -0.599;;;;;;;;;;;;;;;;;;
2009-12-25T20:52:44.399Z;0;1.2910e+01;0;     0.085;  1424.724;  32295.545; 0;  32264.104;  32295.545;  32984.328;  31559.605;123;   6.965; 132.133;;; 200.436;  92.719;  23.546;  -4.935;  -5.247;   7.017;   6.961;  -6.890;   0.822;  -0.599;;;;;;;;;;;;;;;;;;
2009-12-25T20:53:08.399Z;0;1.3060e+01;0;     0.077;  1428.924;  32484.717; 0;  32453.273;  32484.717;  33175.602;  31746.676;123;   6.961; 132.332;;; 200.637;  92.917;  23.548;  -4.935;  -5.247;   7.013;   6.957;  -6.887;   0.818;  -0.599;;;;;;;;;;;;;;;;;;
2009-12-25T20:53:48.399Z;0;1.2950e+01;0;     0.101;  1428.924;  32342.189; 0;  32310.607;  32342.189;  33032.969;  31604.045;123;   6.955; 132.663;;; 200.973;  93.246;  23.551;  -4.935;  -5.247;   7.007;   6.951;  -6.881;   0.812;  -0.598;;;;;;;;;;;;;;;;;;
2009-12-25T20:53:56.398Z;0;1.1930e+01;0;     0.158;  1428.924;  31054.283; 0;  31021.391;  31054.283;  31744.080;  30315.154;123;   6.953; 132.730;;; 201.040;  93.312;  23.552;  -4.935;  -5.247;   7.005;   6.950;  -6.880;   0.811;  -0.598;;;;;;;;;;;;;;;;;;
2009-12-25T20:54:12.398Z;0;1.1540e+01;0;     0.182;  1435.224;  30539.992; 0;  30506.250;  30539.992;  31232.301;  29797.076;123;   6.951; 132.862;;; 201.174;  93.444;  23.553;  -4.934;  -5.247;   7.003;   6.947;  -6.878;   0.809;  -0.598;;;;;;;;;;;;;;;;;;